Location: Huesca
(42.1318°N, 0.4078°W)
Time: 21:58:09
(UTC+02:00)

ACS3 Solar Sail - Pass Details

Date: 25 June 2024
Orbit: 992 x 1023 km, 97.4° (Epoch: 12 July)

Event Time Altitude Azimuth Distance (km) Brightness Sun altitude
Exits shadow 00:25:15 16° 210° (SSW) 2,331 6.5 -20.6°
Maximum altitude 00:29:26 34° 266° (W) 1,586 6.0 -20.9°
Drops below altitude 10° 00:35:01 10° 330° (NNW) 2,765 8.3 -21.3°
Sets 00:37:46 0° 340° (NNW) 3,718 9.4 -21.5°
